TimeEST,TemperatureF,Dew PointF,Humidity,Sea Level PressureIn,VisibilityMPH,Wind Direction,Wind SpeedMPH,Gust SpeedMPH,PrecipitationIn,Events,Conditions,WindDirDegrees,DateUTC
12:15 AM,30.2,19.4,64,30.29,10.0,ESE,9.2,-,N/A,,Clear,120,2011-11-19 05:15:00
12:35 AM,30.2,19.4,64,30.28,10.0,ESE,10.4,-,N/A,,Clear,120,2011-11-19 05:35:00
12:55 AM,30.2,19.4,64,30.27,10.0,ESE,10.4,-,N/A,,Clear,120,2011-11-19 05:55:00
1:15 AM,30.2,19.4,64,30.27,10.0,ESE,8.1,-,N/A,,Clear,120,2011-11-19 06:15:00
1:35 AM,30.2,19.4,64,30.27,10.0,ESE,9.2,-,N/A,,Clear,120,2011-11-19 06:35:00
2:15 AM,30.2,19.4,64,30.27,10.0,ESE,10.4,-,N/A,,Clear,110,2011-11-19 07:15:00
2:35 AM,30.2,19.4,64,30.27,10.0,SE,8.1,-,N/A,,Clear,140,2011-11-19 07:35:00
2:55 AM,30.2,19.4,64,30.25,10.0,SE,8.1,-,N/A,,Mostly Cloudy,130,2011-11-19 07:55:00
3:15 AM,30.2,19.4,64,30.25,10.0,ESE,8.1,-,N/A,,Overcast,120,2011-11-19 08:15:00
3:35 AM,30.2,19.4,64,30.25,10.0,ESE,9.2,-,N/A,,Overcast,120,2011-11-19 08:35:00
3:55 AM,30.2,19.4,64,30.25,10.0,ESE,6.9,-,N/A,,Overcast,110,2011-11-19 08:55:00
4:35 AM,30.2,19.4,64,30.25,10.0,ESE,10.4,-,N/A,,Partly Cloudy,120,2011-11-19 09:35:00
4:55 AM,30.2,17.6,60,30.25,10.0,ESE,9.2,-,N/A,,Clear,120,2011-11-19 09:55:00
5:15 AM,28.4,17.6,64,30.23,10.0,ESE,11.5,-,N/A,,Clear,120,2011-11-19 10:15:00
5:35 AM,28.4,19.4,69,30.25,10.0,ESE,6.9,-,N/A,,Mostly Cloudy,120,2011-11-19 10:35:00
5:55 AM,28.4,17.6,64,30.25,10.0,ESE,6.9,-,N/A,,Overcast,120,2011-11-19 10:55:00
6:15 AM,28.4,17.6,64,30.24,10.0,ESE,3.5,-,N/A,,Scattered Clouds,110,2011-11-19 11:15:00
7:15 AM,28.4,19.4,69,30.25,10.0,East,4.6,-,N/A,,Overcast,80,2011-11-19 12:15:00
7:35 AM,30.2,19.4,64,30.26,10.0,SE,9.2,-,N/A,,Overcast,130,2011-11-19 12:35:00
7:55 AM,30.2,19.4,64,30.25,10.0,South,4.6,-,N/A,,Overcast,170,2011-11-19 12:55:00
8:15 AM,33.8,19.4,56,30.26,10.0,South,4.6,-,N/A,,Mostly Cloudy,190,2011-11-19 13:15:00
8:35 AM,33.8,17.6,52,30.26,10.0,South,3.5,-,N/A,,Overcast,170,2011-11-19 13:35:00
8:55 AM,37.4,19.4,48,30.26,10.0,WSW,5.8,-,N/A,,Overcast,240,2011-11-19 13:55:00
9:35 AM,41.0,17.6,39,30.24,10.0,South,3.5,-,N/A,,Mostly Cloudy,180,2011-11-19 14:35:00
9:55 AM,44.6,15.8,31,30.24,10.0,SW,6.9,-,N/A,,Scattered Clouds,220,2011-11-19 14:55:00
10:15 AM,46.4,15.8,29,30.24,10.0,SSW,4.6,-,N/A,,Scattered Clouds,210,2011-11-19 15:15:00
10:35 AM,46.4,14.0,27,30.24,10.0,SW,6.9,-,N/A,,Mostly Cloudy,230,2011-11-19 15:35:00
10:55 AM,46.4,14.0,27,30.24,10.0,WSW,6.9,-,N/A,,Overcast,250,2011-11-19 15:55:00
11:55 AM,50.0,14.0,24,30.20,10.0,SW,6.9,-,N/A,,Clear,220,2011-11-19 16:55:00
12:15 PM,51.8,15.8,24,30.19,10.0,SSW,9.2,-,N/A,,Clear,210,2011-11-19 17:15:00
12:35 PM,51.8,14.0,22,30.18,10.0,SW,8.1,19.6,N/A,,Clear,220,2011-11-19 17:35:00
12:55 PM,51.8,14.0,22,30.18,10.0,WSW,11.5,21.9,N/A,,Clear,240,2011-11-19 17:55:00
1:15 PM,51.8,15.8,24,30.17,10.0,WSW,10.4,-,N/A,,Clear,240,2011-11-19 18:15:00
1:35 PM,53.6,15.8,22,30.16,10.0,SW,10.4,18.4,N/A,,Clear,230,2011-11-19 18:35:00
1:55 PM,53.6,15.8,22,30.15,10.0,SW,6.9,18.4,N/A,,Clear,220,2011-11-19 18:55:00
2:35 PM,53.6,15.8,22,30.15,10.0,WSW,5.8,18.4,N/A,,Clear,250,2011-11-19 19:35:00
2:55 PM,53.6,15.8,22,30.15,10.0,SW,10.4,16.1,N/A,,Clear,220,2011-11-19 19:55:00
3:15 PM,51.8,15.8,24,30.15,10.0,WSW,4.6,-,N/A,,Clear,250,2011-11-19 20:15:00
3:35 PM,51.8,15.8,24,30.15,10.0,SW,3.5,-,N/A,,Clear,220,2011-11-19 20:35:00
3:55 PM,51.8,15.8,24,30.15,10.0,Calm,Calm,-,N/A,,Clear,0,2011-11-19 20:55:00
4:15 PM,50.0,17.6,28,30.14,10.0,SE,3.5,-,N/A,,Clear,140,2011-11-19 21:15:00
4:55 PM,48.2,17.6,30,30.14,10.0,SE,3.5,-,N/A,,Clear,130,2011-11-19 21:55:00
5:15 PM,48.2,17.6,30,30.14,10.0,SE,8.1,-,N/A,,Clear,140,2011-11-19 22:15:00
5:35 PM,46.4,17.6,32,30.15,10.0,SE,5.8,-,N/A,,Clear,140,2011-11-19 22:35:00
5:55 PM,46.4,17.6,32,30.14,10.0,SSE,4.6,-,N/A,,Clear,160,2011-11-19 22:55:00
6:15 PM,46.4,17.6,32,30.14,10.0,SSE,6.9,-,N/A,,Clear,160,2011-11-19 23:15:00
6:35 PM,44.6,17.6,34,30.15,10.0,SSE,5.8,-,N/A,,Clear,150,2011-11-19 23:35:00
7:35 PM,39.2,19.4,45,30.15,10.0,ESE,6.9,-,N/A,,Clear,120,2011-11-20 00:35:00
7:55 PM,39.2,19.4,45,30.15,10.0,ESE,5.8,-,N/A,,Clear,120,2011-11-20 00:55:00
8:15 PM,39.2,19.4,45,30.15,10.0,ESE,9.2,-,N/A,,Clear,120,2011-11-20 01:15:00
8:35 PM,39.2,19.4,45,30.15,10.0,ESE,9.2,-,N/A,,Clear,110,2011-11-20 01:35:00
9:15 PM,37.4,19.4,48,30.15,10.0,SE,8.1,-,N/A,,Clear,140,2011-11-20 02:15:00
9:55 PM,37.4,19.4,48,30.13,10.0,ESE,9.2,-,N/A,,Partly Cloudy,120,2011-11-20 02:55:00
10:15 PM,37.4,19.4,48,30.13,10.0,ESE,8.1,-,N/A,,Clear,120,2011-11-20 03:15:00
10:35 PM,37.4,19.4,48,30.13,10.0,East,6.9,-,N/A,,Scattered Clouds,100,2011-11-20 03:35:00
10:55 PM,37.4,19.4,48,30.12,10.0,ESE,9.2,-,N/A,,Overcast,120,2011-11-20 03:55:00
11:15 PM,37.4,19.4,48,30.12,10.0,ESE,6.9,-,N/A,,Overcast,120,2011-11-20 04:15:00
11:35 PM,37.4,19.4,48,30.12,10.0,ESE,4.6,-,N/A,,Overcast,120,2011-11-20 04:35:00
11:55 PM,37.4,21.2,52,30.11,10.0,ESE,5.8,-,N/A,,Overcast,110,2011-11-20 04:55:00